{"data":{"norad_id":69457,"epoch":"2026-09-19T05:41:39.117120Z","epoch_age_seconds":134576,"freshness":"FRESH","line1":"1 69457U 26127Q   26262.23725830  .00019141  00000+0  57591-3 0  9992","line2":"2 69457  53.1576 171.9523 0001075  96.9321 263.1804 15.34415865 15991","mean_motion":15.34415865,"eccentricity":0.0001075,"inclination_deg":53.1576,"raan_deg":171.9523,"arg_perigee_deg":96.9321,"mean_anomaly_deg":263.1804,"bstar":0.00057591,"rev_number":1599,"period_min":93.846787748118,"perigee_km":461.9207012332,"apogee_km":463.3914717468,"semimajor_km":6840.79308649,"source":"CELESTRAK","updated_at":"2026-09-20T09:00:44.201478Z"}}